GW0029 Weather Reports


Display with metric or nautical units.
time (UTC)temp
F
wind
direction
speed
MPH
gust
MPH
rain 1hr
in
rain 24hr
in
rain mn
in
humidity
%
barometer
mb
20260506132005 58 300 7.0 15.0 0.00 0.00 0.00 41 1010.0
20260506131006 59 287 6.0 11.0 0.00 0.00 0.00 41 1009.0
20260506130504 59 284 6.0 11.0 0.00 0.00 0.00 41 1009.0
20260506130005 59 284 5.0 11.0 0.00 0.00 0.00 41 1009.0
20260506125504 59 285 6.0 10.0 0.00 0.00 0.00 41 1009.0
20260506124504 60 294 7.0 15.0 0.00 0.00 0.00 41 1009.0
20260506124005 60 289 6.0 12.0 0.00 0.00 0.00 42 1009.0
20260506123504 60 311 8.0 16.0 0.00 0.00 0.00 43 1009.0
20260506123007 60 303 7.0 16.0 0.00 0.00 0.00 41 1009.0
20260506122504 61 265 5.0 15.0 0.00 0.00 0.00 40 1009.0
20260506122004 61 240 4.0 7.0 0.00 0.00 0.00 42 1009.0
20260506121005 61 246 4.0 8.0 0.00 0.00 0.00 41 1009.0
20260506120504 61 242 5.0 9.0 0.00 0.00 0.00 44 1009.0
20260506120005 61 238 5.0 10.0 0.00 0.00 0.00 43 1009.0
20260506115504 61 243 5.0 10.0 0.00 0.00 0.00 43 1009.0
20260506115006 61 250 4.0 10.0 0.00 0.00 0.00 44 1009.0
20260506114504 60 244 3.0 10.0 0.00 0.00 0.00 40 1009.0
20260506113504 60 319 3.0 7.0 0.00 0.00 0.00 35 1010.0
20260506113005 60 20 3.0 8.0 0.00 0.00 0.00 36 1010.0
20260506112505 60 24 5.0 8.0 0.00 0.00 0.00 35 1010.0
20260506111505 59 47 5.0 8.0 0.00 0.00 0.00 36 1010.0
20260506110005 58 321 1.0 7.0 0.00 0.00 0.00 35 1010.0
20260506105504 58 26 2.0 6.0 0.00 0.00 0.00 36 1010.0
20260506105005 59 63 4.0 7.0 0.00 0.00 0.00 36 1010.0
20260506104004 58 334 6.0 11.0 0.00 0.00 0.00 36 1010.0
20260506103504 58 12 4.0 10.0 0.00 0.00 0.00 36 1010.0
20260506103004 58 86 3.0 8.0 0.00 0.00 0.00 35 1010.0
20260506102505 58 80 5.0 9.0 0.00 0.00 0.00 37 1010.0
20260506102005 58 89 6.0 9.0 0.00 0.00 0.00 36 1010.0
20260506101505 58 87 5.0 10.0 0.00 0.00 0.00 39 1010.0
20260506101004 58 56 6.0 12.0 0.00 0.00 0.00 37 1010.0
20260506100505 58 83 7.0 12.0 0.00 0.00 0.00 36 1010.0
20260506100005 58 92 4.0 10.0 0.00 0.00 0.00 38 1010.0
20260506095505 58 63 3.0 8.0 0.00 0.00 0.00 39 1010.0
20260506095005 58 75 7.0 11.0 0.00 0.00 0.00 37 1010.0
20260506094505 58 92 7.0 11.0 0.00 0.00 0.00 37 1010.0
20260506093504 57 26 5.0 7.0 0.00 0.00 0.00 36 1010.0
20260506093005 58 50 5.0 8.0 0.00 0.00 0.00 37 1010.0
20260506092504 58 90 6.0 12.0 0.00 0.00 0.00 38 1010.0
20260506092005 57 82 7.0 12.0 0.00 0.00 0.00 39 1010.0
20260506091504 57 52 6.0 11.0 0.00 0.00 0.00 38 1010.0
20260506091006 57 38 6.0 9.0 0.00 0.00 0.00 38 1010.0
20260506090504 57 62 6.0 9.0 0.00 0.00 0.00 37 1010.0
20260506090006 57 89 7.0 12.0 0.00 0.00 0.00 40 1010.0
20260506085004 57 92 8.0 13.0 0.00 0.00 0.00 38 1009.0
20260506084505 57 89 8.0 13.0 0.00 0.00 0.00 40 1009.0
20260506084005 57 57 7.0 12.0 0.00 0.00 0.00 40 1009.0
20260506083505 57 55 7.0 10.0 0.00 0.00 0.00 39 1009.0
20260506082505 56 76 7.0 10.0 0.00 0.00 0.00 41 1009.0
20260506082006 56 71 7.0 10.0 0.00 0.00 0.00 41 1009.0
20260506081504 56 63 7.0 11.0 0.00 0.00 0.00 42 1009.0
20260506080504 56 76 7.0 9.0 0.00 0.00 0.00 43 1010.0
20260506073504 54 91 8.0 13.0 0.00 0.00 0.00 44 1010.0
20260506073005 54 77 8.0 14.0 0.00 0.00 0.00 44 1010.0
20260506072504 53 69 8.0 14.0 0.00 0.00 0.00 44 1010.0
20260506072006 53 72 8.0 12.0 0.00 0.00 0.00 44 1010.0
20260506071504 53 79 9.0 12.0 0.00 0.00 0.00 43 1010.0
20260506071005 53 82 9.0 11.0 0.00 0.00 0.00 45 1010.0
20260506070504 52 84 8.0 11.0 0.00 0.00 0.00 46 1010.0
20260506062505 49 72 7.0 11.0 0.00 0.00 0.00 49 1010.0
20260506062004 48 66 4.0 10.0 0.00 0.00 0.00 48 1010.0
20260506061504 48 67 2.0 5.0 0.00 0.00 0.00 49 1010.0
20260506061005 47 66 1.0 4.0 0.00 0.00 0.00 51 1010.0
20260506060505 46 63 3.0 6.0 0.00 0.00 0.00 52 1010.0
20260506051005 39 64 1.0 5.0 0.00 0.00 0.00 61 1010.0
20260506050504 39 68 1.0 5.0 0.00 0.00 0.00 61 1010.0
20260506045005 38 76 2.0 4.0 0.00 0.00 0.00 64 1010.0
20260506044504 38 76 3.0 5.0 0.00 0.00 0.00 65 1010.0
20260506044005 37 75 2.0 5.0 0.00 0.00 0.00 65 1010.0
20260506043505 37 0 0.0 0.0 0.00 0.00 0.00 65 1010.0
20260506043005 37 0 0.0 0.0 0.00 0.00 0.00 65 1010.0
20260506042504 37 0 0.0 0.0 0.00 0.00 0.00 65 1010.0
20260506042005 36 79 1.0 7.0 0.00 0.00 0.00 65 1010.0
20260506040006 35 85 4.0 6.0 0.00 0.00 0.00 65 1010.0
20260506035504 35 84 2.0 5.0 0.00 0.00 0.00 65 1010.0
20260506035005 35 83 3.0 5.0 0.00 0.00 0.00 66 1010.0
20260506034504 35 83 5.0 8.0 0.00 0.00 0.00 66 1010.0
20260506034004 35 79 5.0 8.0 0.00 0.00 0.00 66 1010.0
20260506033505 35 76 4.0 6.0 0.00 0.00 0.00 66 1010.0
20260506033005 34 77 4.0 6.0 0.00 0.00 0.00 67 1010.0
20260506032505 34 79 4.0 6.0 0.00 0.00 0.00 67 1011.0
20260506032004 34 86 4.0 5.0 0.00 0.00 0.00 67 1011.0
20260506031004 34 78 4.0 8.0 0.00 0.00 0.00 67 1011.0
20260506030505 34 76 4.0 7.0 0.00 0.00 0.00 67 1011.0
20260506030005 34 83 4.0 5.0 0.00 0.00 0.00 67 1011.0
20260506025505 34 82 3.0 5.0 0.00 0.00 0.00 68 1011.0
20260506025004 34 80 2.0 5.0 0.00 0.00 0.00 68 1011.0
20260506024504 34 104 0.0 4.0 0.00 0.00 0.00 67 1011.0
20260506024005 34 0 0.0 0.0 0.00 0.00 0.00 68 1011.0
20260506023005 34 100 3.0 5.0 0.00 0.00 0.00 67 1011.0
20260506022504 34 103 5.0 7.0 0.00 0.00 0.00 68 1011.0
20260506022006 34 106 5.0 7.0 0.00 0.00 0.00 68 1011.0
20260506021504 34 100 5.0 8.0 0.00 0.00 0.00 68 1011.0
20260506020504 34 107 6.0 7.0 0.00 0.00 0.00 69 1011.0
20260506020005 34 104 4.0 7.0 0.00 0.00 0.00 68 1011.0
20260506015505 34 90 1.0 5.0 0.00 0.00 0.00 68 1011.0
20260506015005 34 0 0.0 0.0 0.00 0.00 0.00 67 1011.0
20260506013505 34 0 0.0 0.0 0.00 0.00 0.00 67 1010.0
20260506013004 34 0 0.0 0.0 0.00 0.00 0.00 67 1010.0
20260506012004 34 0 0.0 0.0 0.00 0.00 0.00 66 1010.0
20260506011505 34 0 0.0 0.0 0.00 0.00 0.00 66 1010.0
20260506011004 34 0 0.0 0.0 0.00 0.00 0.00 65 1010.0
20260506010504 35 0 0.0 0.0 0.00 0.00 0.00 64 1010.0
20260506010005 35 105 0.0 4.0 0.00 0.00 0.00 64 1010.0
20260506005504 35 113 1.0 5.0 0.00 0.00 0.00 64 1010.0
20260506005005 35 111 4.0 6.0 0.00 0.00 0.00 64 1010.0
20260506004504 35 109 5.0 6.0 0.00 0.00 0.00 64 1010.0
20260506004004 35 106 4.0 5.0 0.00 0.00 0.00 63 1010.0
20260506003504 35 101 4.0 5.0 0.00 0.00 0.00 63 1010.0
20260506003005 35 102 2.0 5.0 0.00 0.00 0.00 64 1010.0
20260506002504 35 112 1.0 5.0 0.00 0.00 0.00 62 1010.0
20260506002005 36 112 0.0 4.0 0.00 0.00 0.00 62 1010.0
20260506001504 36 105 1.0 5.0 0.00 0.00 0.00 62 1010.0
20260506001005 36 98 3.0 5.0 0.00 0.00 0.00 62 1010.0
20260506000504 36 94 1.0 5.0 0.00 0.00 0.00 62 1010.0
20260506000006 36 92 1.0 3.0 0.00 0.00 0.00 61 1010.0
20260505235004 36 111 0.0 4.0 0.00 0.00 0.00 61 1010.0
20260505234505 36 111 0.0 4.0 0.00 0.00 0.00 60 1010.0
20260505234005 36 0 0.0 0.0 0.00 0.00 0.00 60 1010.0
20260505233005 36 0 0.0 0.0 0.00 0.00 0.00 61 1010.0
20260505232004 37 0 0.0 0.0 0.00 0.00 0.00 61 1010.0
20260505231505 37 0 0.0 0.0 0.00 0.00 0.00 60 1010.0
20260505230504 37 0 0.0 0.0 0.00 0.00 0.00 59 1010.0
20260505230006 37 0 0.0 0.0 0.00 0.00 0.00 58 1010.0
20260505225504 37 0 0.0 0.0 0.00 0.00 0.00 58 1011.0
20260505224505 38 0 0.0 0.0 0.00 0.00 0.00 57 1011.0
20260505224004 38 0 0.0 0.0 0.00 0.00 0.00 57 1010.0
20260505223504 38 0 0.0 0.0 0.00 0.00 0.00 57 1010.0
20260505223005 38 0 0.0 0.0 0.00 0.00 0.00 57 1010.0
20260505222505 38 0 0.0 0.0 0.00 0.00 0.00 57 1010.0
20260505222005 38 158 0.0 3.0 0.00 0.00 0.00 56 1010.0
20260505220005 39 0 0.0 0.0 0.00 0.00 0.00 55 1010.0
20260505215505 39 0 0.0 0.0 0.00 0.00 0.00 54 1011.0
20260505215005 39 0 0.0 0.0 0.00 0.00 0.00 54 1011.0
20260505214504 40 152 0.0 3.0 0.00 0.00 0.00 53 1011.0
20260505214005 40 152 0.0 3.0 0.00 0.00 0.00 52 1010.0
20260505213504 40 337 0.0 1.0 0.00 0.00 0.00 51 1010.0
20260505212504 41 337 0.0 1.0 0.00 0.00 0.00 49 1010.0
20260505212004 41 280 0.0 3.0 0.00 0.00 0.00 49 1010.0
20260505211504 41 280 0.0 3.0 0.00 0.00 0.00 49 1010.0
20260505211005 42 337 0.0 2.0 0.00 0.00 0.00 49 1010.0
20260505210505 42 283 0.0 3.0 0.00 0.00 0.00 49 1010.0
20260505210004 42 271 0.0 3.0 0.00 0.00 0.00 48 1010.0
20260505205505 42 0 0.0 0.0 0.00 0.00 0.00 49 1010.0
20260505205005 42 0 0.0 0.0 0.00 0.00 0.00 49 1010.0
20260505204505 42 331 0.0 5.0 0.00 0.00 0.00 49 1010.0
20260505204004 42 325 0.0 5.0 0.00 0.00 0.00 49 1010.0
20260505203505 42 284 0.0 2.0 0.00 0.00 0.00 49 1010.0
20260505203005 42 280 0.0 2.0 0.00 0.00 0.00 49 1010.0
20260505202005 43 305 0.0 2.0 0.00 0.00 0.00 49 1010.0
20260505201505 43 232 0.0 2.0 0.00 0.00 0.00 49 1010.0
20260505201004 43 225 0.0 2.0 0.00 0.00 0.00 48 1010.0
20260505200505 43 0 0.0 0.0 0.00 0.00 0.00 48 1010.0
20260505200004 44 0 0.0 0.0 0.00 0.00 0.00 48 1010.0
20260505195006 44 248 0.0 1.0 0.00 0.00 0.00 47 1010.0
20260505194504 44 0 0.0 0.0 0.00 0.00 0.00 47 1010.0
20260505194005 44 0 0.0 0.0 0.00 0.00 0.00 46 1010.0
20260505193504 45 0 0.0 0.0 0.00 0.00 0.00 46 1010.0
20260505193006 45 0 0.0 0.0 0.00 0.00 0.00 46 1010.0
20260505192505 45 0 0.0 0.0 0.00 0.00 0.00 46 1010.0
20260505192004 46 0 0.0 0.0 0.00 0.00 0.00 45 1010.0
20260505191005 46 292 0.0 5.0 0.00 0.00 0.00 44 1009.0
20260505190504 47 294 1.0 5.0 0.00 0.00 0.00 44 1009.0
20260505190007 47 304 4.0 6.0 0.00 0.00 0.00 43 1009.0
20260505185505 47 311 2.0 6.0 0.00 0.00 0.00 43 1010.0
20260505185004 47 225 0.0 2.0 0.00 0.00 0.00 43 1010.0
20260505184504 48 255 0.0 2.0 0.00 0.00 0.00 43 1010.0
20260505184006 48 315 0.0 2.0 0.00 0.00 0.00 43 1010.0
20260505183505 48 305 0.0 2.0 0.00 0.00 0.00 43 1010.0
20260505183005 48 314 0.0 1.0 0.00 0.00 0.00 43 1010.0
20260505182505 48 0 0.0 0.0 0.00 0.00 0.00 43 1010.0
20260505182005 48 0 0.0 0.0 0.00 0.00 0.00 43 1010.0
20260505181504 48 291 0.0 3.0 0.00 0.00 0.00 42 1010.0
20260505181005 49 277 0.0 3.0 0.00 0.00 0.00 41 1009.0
20260505180006 49 271 1.0 5.0 0.00 0.00 0.00 40 1009.0
20260505175504 50 300 2.0 10.0 0.00 0.00 0.00 40 1010.0
20260505175005 50 309 3.0 10.0 0.00 0.00 0.00 39 1010.0
20260505174504 50 307 3.0 9.0 0.00 0.00 0.00 39 1010.0
20260505174004 51 287 2.0 7.0 0.00 0.00 0.00 39 1009.0
20260505173505 51 281 1.0 7.0 0.00 0.00 0.00 39 1009.0
20260505173005 51 272 2.0 5.0 0.00 0.00 0.00 38 1009.0
20260505172504 51 272 3.0 5.0 0.00 0.00 0.00 38 1009.0
20260505172004 52 294 3.0 5.0 0.00 0.00 0.00 38 1009.0
20260505171505 52 307 3.0 10.0 0.00 0.00 0.00 37 1009.0
20260505171006 52 305 5.0 10.0 0.00 0.00 0.00 37 1010.0
20260505170504 52 310 6.0 13.0 0.00 0.00 0.00 36 1010.0
20260505170005 53 306 6.0 13.0 0.00 0.00 0.00 36 1010.0
20260505165504 53 288 5.0 10.0 0.00 0.00 0.00 37 1011.0
20260505164504 53 313 9.0 15.0 0.00 0.00 0.00 36 1011.0
20260505164005 53 311 10.0 15.0 0.00 0.00 0.00 34 1010.0
20260505163005 53 317 8.0 12.0 0.00 0.00 0.00 34 1010.0
20260505162504 53 312 7.0 12.0 0.00 0.00 0.00 34 1010.0
20260505162005 53 308 8.0 14.0 0.00 0.00 0.00 36 1010.0
20260505161005 53 317 10.0 15.0 0.00 0.00 0.00 32 1010.0
20260505160505 53 314 11.0 15.0 0.00 0.00 0.00 34 1010.0
20260505153005 53 309 8.0 15.0 0.00 0.00 0.00 36 1010.0
20260505152504 53 306 7.0 12.0 0.00 0.00 0.00 37 1010.0
20260505151004 53 313 12.0 18.0 0.00 0.00 0.00 35 1009.0
20260505150505 53 307 10.0 18.0 0.00 0.00 0.00 36 1009.0
20260505140505 53 313 9.0 18.0 0.00 0.00 0.00 42 1010.0